Location: G�nzburg
(48.4565°N, 10.3217°E)
Time: 09:21:57
(UTC+01:00)

ISS - Pass Details

Date: 15 November 2017
Orbit: 402 x 407 km, 51.6° (Epoch: 21 November)

Event Time Altitude Azimuth Distance (km) Brightness Sun altitude
Exits shadow 06:28:01 12° 262° (W) 1,321 -1.8 -9.8°
Maximum altitude 06:29:58 19° 220° (SW) 1,018 -2.0 -9.5°
Drops below altitude 10° 06:32:23 10° 172° (S) 1,448 -0.7 -9.1°
Sets 06:34:49 0° 154° (SSE) 2,303 0.7 -8.7°
